Regional Weather Roundup
Issued by NWS

Home | Current Version | Previous Version | Graphics & Text | Print | Product List | Glossary On
Versions: 1 2 3 4 5 6 7 8 9 10 11 12 13 14 15 16 17 18 19 20 21 22 23 24 25 26 27 28 29 30 31 32 33 34 35 36 37 38 39 40 41 42 43 44 45 46 47 48 49 50
000
ASUS45 KTFX 222210
RWRMT
MONTANA REGIONAL WEATHER ROUNDUP
NATIONAL WEATHER SERVICE GREAT FALLS MT
400 PM MDT SAT APR 22 2017

NOTE: "FAIR" INDICATES FEW OR NO CLOUDS BELOW 12000 FEET WITH NO
SIGNIFICANT WEATHER AND/OR OBSTRUCTIONS TO VISIBILITY.

MTZ001>007-043-222300-
WEST OF THE DIVIDE

CITY           SKY/WX    TMP DP  RH WIND       PRES   REMARKS
KALISPELL      MOSUNNY   62  28  27 SE15      29.91F
MISSOULA       SUNNY     64  27  24 S15G21    29.90F
BUTTE          CLOUDY    56  25  30 S16G24    29.98F
MULLAN PASS    PTSUNNY   49  22  34 VRB5      29.94S
ANACONDA         N/A     61  19  20 SW10G24   29.93F
DEER LODGE       N/A     61  27  27 SE18G25   29.94F
EUREKA           N/A     63  28  27 E10       29.88F
HAMILTON         N/A     64  21  19 S6        29.90F
LIBBY            N/A     64  28  25 SE5       29.86F
RONAN            N/A     62  30  30 NE2       29.96F
$$

MTZ008-052>055-222300-
SOUTHWEST MONTANA

CITY           SKY/WX    TMP DP  RH WIND       PRES   REMARKS
BOZEMAN        SUNNY     61  34  36 NE7       29.97F
DILLON         CLOUDY    58  23  26 S12       29.97F
W YELLOWSTONE  CLOUDY    48  25  40 SW16G37   30.13F
ENNIS          SUNNY     57  23  26 S30G37    30.04F
THREE FORKS      N/A     59  59 100 N1        29.97F
$$

MTZ009-010-012-014-046-048-049-054-222300-
EAST SLOPES AND CENTRAL MONTANA

CITY           SKY/WX    TMP DP  RH WIND       PRES   REMARKS
CUT BANK       MOSUNNY   56  32  40 SE14G25   29.93F
GREAT FALLS    SUNNY     59  34  39 S14       29.96F
MALMSTROM AFB  SUNNY     57  34  41 S7        29.96F
HELENA         SUNNY     62  28  27 S16G22    29.92F
AUGUSTA          N/A     54  31  40 SE15G22   29.93F
BOWMANS CRNR     N/A     53  33  46 S17       29.93F
CHOTEAU          N/A     59  30  33 SE17      29.95F
FAIRFIELD        N/A     57  32  39 SE14G25   29.94F
POWER            N/A     55  32  41 SE15      29.95F
RAYNESFORD     PTSUNNY   58  37  45 E8G17     29.96F
ULM              N/A     60  32  34 S9        29.94F
$$

MTZ011-013-016-021-045-047-050-051-222300-
NORTH CENTRAL MONTANA

CITY           SKY/WX    TMP DP  RH WIND       PRES   REMARKS
HAVRE          CLOUDY    56  41  57 E17G23    30.03F
LEWISTOWN      CLOUDY    57  35  43 VRB5      30.00F
N BAR RANCH      N/A     55  34  44 SW14G24   30.06F
CHINOOK          N/A     54  39  58 NE12      30.05F
DENTON         PTSUNNY   60  31  33 S15       29.95F
FORT BENTON      N/A     61  36  39 MISG      29.98F
GEYSER         PTSUNNY   57  34  43 N6        29.97F
GRASS RANGE      N/A     58  36  43 S15G22    29.97F
JUDITH GAP       N/A     55  34  45 S21G28    30.01F
STANFORD         N/A     58  32  37 SE15      29.96F
WINIFRED       PTSUNNY   56  35  43 E5        30.00F
$$

MTZ017>020-022>027-061-062-222300-
NORTHEAST MONTANA

CITY           SKY/WX    TMP DP  RH WIND       PRES   REMARKS
GLASGOW        CLOUDY    50  41  71 E9        30.11F
JORDAN           N/A     58  41  53 S8        30.06F
SIDNEY         CLOUDY    51  42  71 CALM      30.14F
WOLF POINT     CLOUDY    54  41  61 VRB5      30.13F
MALTA          MOSUNNY   54  41  62 E10G17    30.08F
PLENTYWOOD       N/A     43  41  93 NE13      30.16F
POPLAR           N/A     52  43  71 E8        30.14F
$$

MTZ028>42-056>058-222300-
SOUTHCENTRAL AND SOUTHEAST MONTANA

CITY           SKY/WX    TMP DP  RH WIND       PRES   REMARKS
BAKER          MOSUNNY   58  38  47 W7        30.11F
BILLINGS       CLOUDY    60  37  42 E6        30.04F
LIVINGSTON     CLOUDY    60  38  43 E15G23    29.98F
MILES CITY     MOSUNNY   60  40  47 VRB3      30.08F
BIG TIMBER     SUNNY     57  36  44 VRB7G16   30.03F
LAUREL           N/A     59  34  39 S9        30.02F
ROUNDUP          N/A     57  36  45 E7        29.96F
$$

REGIONAL REPORTS...DAKOTAS

CITY           SKY/WX    TMP DP  RH WIND       PRES   REMARKS
WILLISTON      CLOUDY    54  41  61 E8        30.14F
MINOT          LGT RAIN  47  38  71 N16       30.17S
DICKINSON      CLOUDY    61  38  42 NW9       30.07F
BEACH          PTSUNNY   61  39  44 W9G15     30.13F
TIOGA          CLOUDY    41  41 100 E18       30.18F
WATFORD CITY   CLOUDY    54  41  62 VRB5      30.12F
BISMARCK       PTSUNNY   70  36  28 W7        30.05F
GRAND FORKS    PTSUNNY   47  36  65 N21G28    30.17F
FARGO          SUNNY     67  43  41 NW12      30.08F
BUFFALO SD       N/A     64  37  36 SW16G23   30.03F
RAPID CITY     SUNNY     66  35  31 S20       30.11F
$$

REGIONAL REPORTS...WYOMING/IDAHO/WASHINGTON

CITY           SKY/WX    TMP DP  RH WIND       PRES   REMARKS
GILLETTE       MOSUNNY   54  38  54 S14       30.12F
SHERIDAN       CLOUDY    58  40  51 SE20G25   30.06F
BUFFALO WY     CLOUDY    56  34  43 S22       30.09F
CODY           MOSUNNY   55  37  50 S16       30.07F
YELLOWSTONE LA   N/A     44  21  40 VRB5      30.17F
IDAHO FALLS    CLOUDY    58  30  34 S8G20     30.09F
SALMON         CLOUDY    64  27  24 SW20      29.91F
BOISE          CLOUDY    69  27  20 SE28G35   29.91F
SPOKANE        CLOUDY    63  31  30 S9        29.86S
$$

REGIONAL REPORTS...ALBERTA

CITY           SKY/WX    TMP DP  RH WIND       PRES   REMARKS
EDMONTON       CLOUDY    36  25  64 E16       30.23F WCI  26
CALGARY        CLOUDY    52  28  40 E16       29.98F
LETHBRIDGE     PTSUNNY   57  37  47 E9G17     29.93F
MEDICINE HAT   CLOUDY    52  39  62 NE12      30.04F
WATERTON GATE    N/A     57  28  33 SW12G18     N/A
MILK RIVER       N/A     59  36  41 S13G21      N/A
$$

REGIONAL REPORTS...SASKATCHEWAN

CITY           SKY/WX    TMP DP  RH WIND       PRES   REMARKS
SWIFT CURRENT  CLOUDY    48  32  53 E10G20    30.11F
REGINA         CLOUDY    45  32  61 NE12      30.21F
SASKATOON      CLOUDY    39  27  60 E10       30.28S
CYPRESS HILLS    N/A     41  36  81 SE8         N/A
ASSINIBOIA       N/A     41  25  52 E12         N/A
$$



USA.gov is the U.S. government's official web portal to all federal, state and local government web resources and services.